Location: Budapest
(47.4979°N, 19.0402°E)
Time: 16:35:22
(UTC+02:00)

X-37B - Visible Passes

Search period start: 18 September 2020 00:00
Search period end: 28 September 2020 00:00
Orbit: 386 x 387 km, 45.0° (Epoch: 15 September)

Date Brightness Start Highest point End Pass type
(mag) Time Alt. Az. Time Alt. Az. Time Alt. Az.
18 Sep 3.2 03:52:47 18° ESE 03:52:47 18° ESE 03:53:48 10° E visible
18 Sep 0.9 05:25:04 18° WSW 05:27:13 54° S 05:30:20 10° ESE visible
19 Sep 1.2 04:29:10 48° SE 04:29:10 48° SE 04:31:49 10° E visible
20 Sep 1.0 05:05:36 33° WSW 05:06:37 48° S 05:09:42 10° ESE visible
21 Sep 2.7 04:09:48 23° ESE 04:09:48 23° ESE 04:11:14 10° ESE visible
21 Sep 1.8 05:42:05 13° WSW 05:44:26 28° SSW 05:47:14 10° SE visible
22 Sep 1.4 04:46:23 36° S 04:46:23 36° S 04:48:59 10° SE visible
23 Sep 2.2 05:23:04 18° SW 05:23:43 19° SSW 05:26:06 10° SSE visible
24 Sep 3.2 04:27:36 13° SE 04:27:36 13° SE 04:28:07 10° SE visible
